Weather History for Algona, IA

Change the Weather History Date:

Wednesday, February 27, 2013

  Actual Average Record
Temperature  
Mean Temperature 26 °F -  
Max Temperature 30 °F 30 °F 44 °F (2006)
Min Temperature 21 °F 17 °F -9 °F (2014)
Degree Days  
Heating Degree Days 40    
Moisture  
Dew Point 22 °F    
Average Humidity 88    
Maximum Humidity 93    
Minimum Humidity 75    
Precipitation  
Precipitation 0.00 in - - ()
Sea Level Pressure  
Sea Level Pressure 29.88 in    
Wind  
Wind Speed 16 mph (NNW)    
Max Wind Speed 23 mph    
Max Gust Speed 31 mph    
Visibility 9 miles    
Events Snow    
Averages and records for this station are not official NWS values.
T = Trace of Precipitation, MM = Missing Value Source: NWS Daily Summary

Daily Weather History Graph

Daily Weather History Graph

Search for Another Location

Airport:

Trip Planner

Search our weather history database for the weather conditions in past years. The results will help you decide how hot, cold, wet, or windy it might be!

Date:

Astronomy

Feb. 27, 2013 Rise Set
Actual Time 6:55 AM CST 6:04 PM CST
Civil Twilight 6:27 AM CST 6:32 PM CST
Nautical Twilight 5:54 AM CST 7:05 PM CST
Astronomical Twilight 5:21 AM CST 7:38 PM CST
Moon 8:31 PM CST (2/27) 7:27 AM CST (2/27)
Length of Visible Light 12h 05m
Length of Day
11h 08m
Waning Gibbous, 96% of the Moon is Illuminated
Feb 27
Waning Gibbous
Mar 4
Last Quarter
Mar 11
New
Mar 19
First Quarter
Mar 27
Full

Hourly Weather History & Observations

Time (CST) Temp. Windchill Dew Point Humidity Pressure Visibility Wind Dir Wind Speed Gust Speed Precip Events Conditions
12:15 AM 24.8 °F 12.9 °F 23.0 °F 93% 29.82 in 6.0 mi North 13.8 mph - N/A   Clear
12:35 AM 24.8 °F 12.4 °F 23.0 °F 93% 29.82 in 6.0 mi NNW 15.0 mph - N/A   Clear
12:55 AM 24.8 °F 12.9 °F 23.0 °F 93% 29.81 in 6.0 mi NNW 13.8 mph 21.9 mph N/A   Clear
1:15 AM 23.0 °F 9.6 °F 21.2 °F 93% 29.82 in 5.0 mi NNW 16.1 mph 21.9 mph N/A   Partly Cloudy
1:35 AM 23.0 °F 10.1 °F 21.2 °F 93% 29.81 in 5.0 mi NNW 15.0 mph 25.3 mph N/A   Clear
1:55 AM 23.0 °F 10.1 °F 21.2 °F 93% 29.81 in 5.0 mi NNW 15.0 mph 23.0 mph N/A   Partly Cloudy
2:15 AM 23.0 °F 9.2 °F 21.2 °F 93% 29.81 in 6.0 mi NNW 17.3 mph - N/A   Partly Cloudy
2:35 AM 23.0 °F 10.1 °F 21.2 °F 93% 29.81 in 6.0 mi NNW 15.0 mph 23.0 mph N/A   Mostly Cloudy
2:55 AM 23.0 °F 10.1 °F 21.2 °F 93% 29.81 in 7.0 mi NNW 15.0 mph 23.0 mph N/A   Overcast
3:15 AM 23.0 °F 9.6 °F 21.2 °F 93% 29.81 in 7.0 mi NNW 16.1 mph - N/A   Overcast
3:35 AM 23.0 °F 9.6 °F 21.2 °F 93% 29.81 in 8.0 mi NNW 16.1 mph 24.2 mph N/A   Overcast
3:55 AM 23.0 °F 9.2 °F 21.2 °F 93% 29.81 in 7.0 mi North 17.3 mph - N/A   Overcast
4:15 AM 23.0 °F 10.1 °F 21.2 °F 93% 29.81 in 8.0 mi North 15.0 mph - N/A   Overcast
4:35 AM 23.0 °F 9.2 °F 19.4 °F 86% 29.82 in 7.0 mi North 17.3 mph 23.0 mph N/A   Overcast
4:55 AM 23.0 °F 9.6 °F 19.4 °F 86% 29.82 in 8.0 mi North 16.1 mph 23.0 mph N/A   Overcast
5:15 AM 23.0 °F 9.6 °F 19.4 °F 86% 29.82 in 8.0 mi North 16.1 mph 23.0 mph N/A   Overcast
5:35 AM 23.0 °F 10.1 °F 19.4 °F 86% 29.82 in 8.0 mi NNW 15.0 mph 23.0 mph N/A   Overcast
6:15 AM 23.0 °F 10.1 °F 19.4 °F 86% 29.82 in 10.0 mi NNW 15.0 mph - N/A   Overcast
6:35 AM 23.0 °F 10.1 °F 19.4 °F 86% 29.83 in 10.0 mi North 15.0 mph - N/A   Overcast
6:55 AM 23.0 °F 9.6 °F 19.4 °F 86% 29.83 in 7.0 mi North 16.1 mph - N/A   Overcast
7:15 AM 23.0 °F 9.2 °F 21.2 °F 93% 29.83 in 7.0 mi North 17.3 mph - N/A   Overcast
7:35 AM 23.0 °F 10.1 °F 21.2 °F 93% 29.84 in 7.0 mi North 15.0 mph 20.7 mph N/A   Overcast
7:55 AM 23.0 °F 9.2 °F 19.4 °F 86% 29.84 in 7.0 mi North 17.3 mph - N/A   Overcast
8:15 AM 23.0 °F 10.6 °F 21.2 °F 93% 29.85 in 7.0 mi North 13.8 mph 23.0 mph N/A   Overcast
8:35 AM 23.0 °F 9.2 °F 21.2 °F 93% 29.85 in 7.0 mi NNW 17.3 mph 24.2 mph N/A   Overcast
8:55 AM 23.0 °F 9.6 °F 21.2 °F 93% 29.86 in 7.0 mi North 16.1 mph 23.0 mph N/A   Overcast
9:15 AM 23.0 °F 9.6 °F 21.2 °F 93% 29.85 in 7.0 mi North 16.1 mph - N/A   Overcast
9:35 AM 24.8 °F 12.4 °F 21.2 °F 86% 29.86 in 8.0 mi North 15.0 mph - N/A   Overcast
9:55 AM 24.8 °F 11.9 °F 21.2 °F 86% 29.86 in 8.0 mi North 16.1 mph 24.2 mph N/A   Overcast
10:15 AM 24.8 °F 11.1 °F 21.2 °F 86% 29.86 in 9.0 mi NNW 18.4 mph 24.2 mph N/A   Overcast
10:35 AM 24.8 °F 11.9 °F 21.2 °F 86% 29.87 in 9.0 mi North 16.1 mph 24.2 mph N/A   Overcast
11:15 AM 24.8 °F 13.4 °F 23.0 °F 93% 29.88 in 10.0 mi NNW 12.7 mph 23.0 mph N/A   Overcast
11:35 AM 24.8 °F 11.9 °F 21.2 °F 86% 29.88 in 9.0 mi NNW 16.1 mph 23.0 mph N/A   Overcast
12:15 PM 26.6 °F 13.8 °F 23.0 °F 86% 29.88 in 10.0 mi NNW 17.3 mph 26.5 mph N/A   Overcast
12:35 PM 26.6 °F 14.3 °F 23.0 °F 86% 29.88 in 10.0 mi NNW 16.1 mph 23.0 mph N/A   Overcast
12:55 PM 26.6 °F 12.7 °F 23.0 °F 86% 29.87 in 9.0 mi North 20.7 mph 31.1 mph N/A   Overcast
1:15 PM 28.4 °F 16.2 °F 23.0 °F 80% 29.88 in 10.0 mi North 17.3 mph 25.3 mph N/A   Overcast
1:35 PM 28.4 °F 17.5 °F 23.0 °F 80% 29.87 in 10.0 mi NNW 13.8 mph - N/A   Mostly Cloudy
1:55 PM 28.4 °F 16.6 °F 23.0 °F 80% 29.87 in 10.0 mi North 16.1 mph - N/A   Partly Cloudy
2:15 PM 30.2 °F 18.1 °F 24.8 °F 80% 29.86 in 10.0 mi NNW 18.4 mph - N/A   Clear
2:35 PM 30.2 °F 19.3 °F 24.8 °F 80% 29.87 in 10.0 mi NNW 15.0 mph 23.0 mph N/A   Clear
2:55 PM 30.2 °F 18.9 °F 24.8 °F 80% 29.87 in 10.0 mi NNW 16.1 mph 27.6 mph N/A   Clear
3:15 PM 30.2 °F 18.9 °F 24.8 °F 80% 29.87 in 10.0 mi NNW 16.1 mph - N/A   Clear
3:35 PM 30.2 °F 19.8 °F 24.8 °F 80% 29.88 in 10.0 mi NNW 13.8 mph 23.0 mph N/A   Mostly Cloudy
3:55 PM 30.2 °F 18.9 °F 24.8 °F 80% 29.88 in 10.0 mi North 16.1 mph 23.0 mph N/A   Scattered Clouds
4:15 PM 30.2 °F 18.9 °F 24.8 °F 80% 29.89 in 10.0 mi North 16.1 mph - N/A   Partly Cloudy
4:35 PM 30.2 °F 18.9 °F 24.8 °F 80% 29.90 in 10.0 mi North 16.1 mph - N/A   Partly Cloudy
4:55 PM 30.2 °F 19.3 °F 23.0 °F 75% 29.90 in 10.0 mi NNW 15.0 mph 25.3 mph N/A   Clear
5:15 PM 30.2 °F 19.3 °F 24.8 °F 80% 29.89 in 10.0 mi NNW 15.0 mph 25.3 mph N/A   Clear
5:35 PM 30.2 °F 19.3 °F 24.8 °F 80% 29.90 in 10.0 mi NNW 15.0 mph 26.5 mph N/A   Clear
5:55 PM 30.2 °F 18.9 °F 23.0 °F 75% 29.91 in 10.0 mi NNW 16.1 mph 24.2 mph N/A   Clear
6:15 PM 28.4 °F 14.7 °F 24.8 °F 86% 29.91 in 10.0 mi NNW 21.9 mph 29.9 mph N/A Snow Light Snow
6:35 PM 28.4 °F 15.4 °F 24.8 °F 86% 29.92 in 10.0 mi NNW 19.6 mph 25.3 mph N/A Snow Light Snow
6:55 PM 26.6 °F 13.4 °F 23.0 °F 86% 29.93 in 10.0 mi NNW 18.4 mph 27.6 mph N/A Snow Light Snow
7:15 PM 24.8 °F 10.0 °F 23.0 °F 93% 29.93 in 10.0 mi NNW 21.9 mph 28.8 mph N/A Snow Light Snow
7:35 PM 24.8 °F 9.6 °F 21.2 °F 86% 29.94 in 10.0 mi NNW 23.0 mph - N/A Snow Light Snow
8:15 PM 23.0 °F 9.2 °F 21.2 °F 93% 29.95 in 10.0 mi NNW 17.3 mph 27.6 mph N/A Snow Light Snow
8:35 PM 23.0 °F 9.6 °F 19.4 °F 86% 29.95 in 10.0 mi NNW 16.1 mph 24.2 mph N/A Snow Light Snow
8:55 PM 21.2 °F 7.8 °F 19.4 °F 93% 29.96 in 10.0 mi North 15.0 mph 20.7 mph N/A   Clear
9:15 PM 21.2 °F 7.3 °F 19.4 °F 93% 29.97 in 10.0 mi North 16.1 mph 23.0 mph N/A   Clear
9:35 PM 21.2 °F 6.8 °F 19.4 °F 93% 29.97 in 10.0 mi NNW 17.3 mph 25.3 mph N/A   Clear
9:55 PM 21.2 °F 6.8 °F 19.4 °F 93% 29.97 in 10.0 mi NNW 17.3 mph 25.3 mph N/A Snow Light Snow
10:35 PM 21.2 °F 6.8 °F 19.4 °F 93% 29.98 in 10.0 mi NNW 17.3 mph 27.6 mph N/A Snow Light Snow
10:55 PM 21.2 °F 6.4 °F 19.4 °F 93% 29.98 in 10.0 mi NNW 18.4 mph 25.3 mph N/A Snow Light Snow
11:15 PM 21.2 °F 6.4 °F 19.4 °F 93% 29.98 in 10.0 mi North 18.4 mph 26.5 mph N/A Snow Light Snow
11:35 PM 21.2 °F 6.8 °F 19.4 °F 93% 29.99 in 10.0 mi North 17.3 mph 24.2 mph N/A   Partly Cloudy
11:55 PM 21.2 °F 6.8 °F 19.4 °F 93% 29.99 in 10.0 mi North 17.3 mph 23.0 mph N/A   Mostly Cloudy